Regional Weather Roundup
Issued by NWS Cleveland, OH

Home | Current Version | Previous Version | Text Only | Print | Product List | Glossary Off
Versions: 1 2 3 4 5 6 7 8 9 10 11 12 13 14 15 16 17 18 19 20 21 22 23 24 25 26 27 28 29 30 31 32 33 34 35 36 37 38 39 40 41 42 43 44 45 46 47 48 49 50

000
ASUS41 KCLE 291600
RWRCLE
OHIO REGIONAL WEATHER ROUNDUP
NATIONAL WEATHER SERVICE WILMINGTON, OH
1200 PM EDT SAT AUG 29 2015

NOTE: "FAIR" INDICATES FEW OR NO CLOUDS BELOW 12,000 FEET WITH NO
SIGNIFICANT WEATHER AND/OR OBSTRUCTIONS TO VISIBILITY.

OHZ001>008-015>018-024>027-034-035-043-044-291700-
   NORTHWEST OHIO

CITY           SKY/WX    TMP DP  RH WIND       PRES   REMARKS
DEFIANCE       PTSUNNY   76  61  59 CALM      30.12S
FINDLAY        MOSUNNY   76  64  66 S7        30.12S
TOLEDO EXPRESS CLOUDY    73  61  65 SE5       30.13R
TOLEDO EXEC    PTSUNNY   76  61  59 VRB3      30.14S
LIMA           MOSUNNY   78  65  63 VRB6      30.13R
$$

OHZ009>014-019>023-028>033-038-089-291700-
   NORTHEAST OHIO

CITY           SKY/WX    TMP DP  RH WIND       PRES   REMARKS
CLE-HOPKINS    PTSUNNY   78  59  51 S6        30.18S
CLE-LAKEFRONT  MOSUNNY   79  58  48 N6        30.15S
CUY CO. ARPT   MOSUNNY   81  59  47 NW8       30.18S
LORAIN-ELYRIA  MOSUNNY   75  60  59 SE3       30.16F
ASHTABULA      PTSUNNY   75  59  57 SW6       30.19S
AKRON-CANTON   PTSUNNY   79  58  48 S3        30.18F
WOOSTER        NOT AVBL
MANSFIELD      CLOUDY    74  60  61 S7        30.17S
YOUNGSTOWN     PTSUNNY   77  58  51 W7        30.20S
$$

OHZ042-051>053-060>062-070>072-077>081-291700-
  SOUTHWEST OHIO

CITY           SKY/WX    TMP DP  RH WIND       PRES   REMARKS
CINC-COVINGTON MOSUNNY   81  68  64 SW7       30.15S
CINC-LUNKEN    SUNNY     81  69  67 SW8       30.14F
HAMILTON       SUNNY     84  68  58 VRB6      30.14F
DAYTON         NOT AVBL
WRIGHT-PAT AFB PTSUNNY   80  67  66 SW8       30.13F
DAYTON GENERAL MOSUNNY   81  66  60 SW9       30.14S
WILMINGTON     SUNNY     81  67  62 SW10      30.15F
$$

OHZ036-037-039>041-045>050-054>059-063>069-073>076-082>088-291700-
  CENTRAL AND SOUTHEAST OHIO

CITY           SKY/WX    TMP DP  RH WIND       PRES   REMARKS
COLUMBUS       PTSUNNY   79  64  60 SW8       30.15F
OSU AIRPORT    PTSUNNY   80  65  59 SW6       30.15S
BOLTON FIELD   MOSUNNY   79  68  69 SW6       30.16S
RICKENBACK AFB NOT AVBL
NEWARK         MOSUNNY   81  65  58 SW6       30.15F
MARION         MOSUNNY   76  63  64 S9        30.15F
LANCASTER      SUNNY     81  66  60 SW9       30.16F
ZANESVILLE     MOSUNNY   82  61  48 MISG      30.17F
NEW PHILLY     MOSUNNY   79  61  53 SW5       30.18F
$$


USA.gov is the U.S. government's official web portal to all federal, state and local government web resources and services.